Time,TemperatureF,DewpointF,PressureIn,WindDirection,WindDirectionDegrees,WindSpeedMPH,WindSpeedGustMPH,Humidity,HourlyPrecipIn,Conditions,Clouds,dailyrainin,SoftwareType,DateUTC
2013-04-02 00:02:00,29.0,29.0,-100.00,WNW,282,0.0,0.0,99,0.00,,,-99.99,,2013-04-02 06:02:00,
2013-04-02 00:12:00,29.0,29.0,-100.00,WNW,282,0.0,0.0,99,0.00,,,-99.99,,2013-04-02 06:12:00,
2013-04-02 00:22:00,29.0,29.0,-100.00,ESE,112,0.0,0.0,99,0.00,,,-99.99,,2013-04-02 06:22:00,
2013-04-02 00:32:00,29.0,29.0,-100.00,ESE,112,0.0,0.0,99,0.00,,,-99.99,,2013-04-02 06:32:00,
2013-04-02 00:42:00,29.0,29.0,-100.00,ESE,112,0.0,0.0,99,0.00,,,-99.99,,2013-04-02 06:42:00,
2013-04-02 00:52:00,30.0,30.0,-100.00,ESE,112,0.0,0.0,99,0.00,,,-99.99,,2013-04-02 06:52:00,
2013-04-02 01:02:00,29.0,29.0,-100.00,ESE,116,2.0,3.0,99,0.00,,,-99.99,,2013-04-02 07:02:00,
2013-04-02 01:12:00,29.0,29.0,-100.00,ESE,116,2.0,3.0,99,0.00,,,-99.99,,2013-04-02 07:12:00,
2013-04-02 01:22:00,28.0,28.0,-100.00,ESE,112,2.0,3.0,99,0.00,,,-99.99,,2013-04-02 07:22:00,
2013-04-02 01:32:00,28.0,28.0,-100.00,ESE,116,3.0,5.0,99,0.00,,,-99.99,,2013-04-02 07:32:00,
2013-04-02 01:42:00,28.0,28.0,-100.00,ESE,116,3.0,5.0,99,0.00,,,-99.99,,2013-04-02 07:42:00,
2013-04-02 01:52:00,29.0,29.0,-100.00,SE,130,3.0,4.0,99,0.00,,,-99.99,,2013-04-02 07:52:00,
2013-04-02 02:02:00,29.0,29.0,-100.00,SE,129,3.0,4.0,99,0.00,,,-99.99,,2013-04-02 08:02:00,
2013-04-02 02:13:00,29.0,29.0,-100.00,SE,129,3.0,4.0,99,0.00,,,-99.99,,2013-04-02 08:13:00,
2013-04-02 02:22:00,29.0,29.0,-100.00,SE,129,3.0,4.0,99,0.00,,,-99.99,,2013-04-02 08:22:00,
2013-04-02 02:32:00,29.0,29.0,-100.00,South,181,4.0,5.0,99,0.00,,,-99.99,,2013-04-02 08:32:00,
2013-04-02 02:42:00,29.0,29.0,-100.00,South,181,4.0,5.0,99,0.00,,,-99.99,,2013-04-02 08:42:00,
2013-04-02 02:52:00,28.0,28.0,-100.00,SE,140,4.0,6.0,99,0.00,,,-99.99,,2013-04-02 08:52:00,
2013-04-02 03:02:00,27.0,27.0,-100.00,SE,142,3.0,4.0,99,0.00,,,-99.99,,2013-04-02 09:02:00,
2013-04-02 03:12:00,27.0,27.0,-100.00,SE,142,3.0,4.0,99,0.00,,,-99.99,,2013-04-02 09:12:00,
2013-04-02 03:22:00,27.0,27.0,-100.00,SSE,147,3.0,5.0,99,0.00,,,-99.99,,2013-04-02 09:22:00,
2013-04-02 03:32:00,26.0,26.0,-100.00,SE,131,3.0,6.0,99,0.00,,,-99.99,,2013-04-02 09:32:00,
2013-04-02 03:43:00,26.0,26.0,-100.00,SE,131,3.0,6.0,99,0.00,,,-99.99,,2013-04-02 09:43:00,
2013-04-02 03:53:00,26.0,26.0,-100.00,SE,125,5.0,7.0,99,0.00,,,-99.99,,2013-04-02 09:53:00,
2013-04-02 04:03:00,26.0,26.0,-100.00,ESE,114,4.0,5.0,99,0.00,,,-99.99,,2013-04-02 10:03:00,
2013-04-02 04:13:00,26.0,26.0,-100.00,ESE,114,4.0,5.0,99,0.00,,,-99.99,,2013-04-02 10:13:00,
2013-04-02 04:23:00,26.0,26.0,-100.00,SE,124,5.0,7.0,99,0.00,,,-99.99,,2013-04-02 10:23:00,
2013-04-02 04:33:00,25.0,25.0,-100.00,ESE,117,5.0,7.0,99,0.00,,,-99.99,,2013-04-02 10:33:00,
2013-04-02 04:42:00,25.0,25.0,-100.00,ESE,117,5.0,7.0,99,0.00,,,-99.99,,2013-04-02 10:42:00,
2013-04-02 04:52:00,24.0,24.0,-100.00,SE,135,5.0,7.0,99,0.00,,,-99.99,,2013-04-02 10:52:00,
2013-04-02 05:02:00,23.0,23.0,-100.00,SE,130,3.0,4.0,99,0.00,,,-99.99,,2013-04-02 11:02:00,
2013-04-02 05:12:00,23.0,23.0,-100.00,SE,130,3.0,4.0,99,0.00,,,-99.99,,2013-04-02 11:12:00,
2013-04-02 05:22:00,23.0,23.0,-100.00,SE,131,5.0,7.0,99,0.00,,,-99.99,,2013-04-02 11:22:00,
2013-04-02 05:32:00,23.0,23.0,-100.00,SE,132,3.0,4.0,99,0.00,,,-99.99,,2013-04-02 11:32:00,
2013-04-02 05:42:00,23.0,23.0,-100.00,SE,132,3.0,4.0,99,0.00,,,-99.99,,2013-04-02 11:42:00,
2013-04-02 05:52:00,23.0,23.0,-100.00,SE,129,5.0,7.0,99,0.00,,,-99.99,,2013-04-02 11:52:00,
2013-04-02 06:02:00,22.0,22.0,-100.00,ESE,111,4.0,6.0,99,0.00,,,-99.99,,2013-04-02 12:02:00,
2013-04-02 06:12:00,22.0,22.0,-100.00,ESE,111,4.0,6.0,99,0.00,,,-99.99,,2013-04-02 12:12:00,
2013-04-02 06:22:00,22.0,22.0,-100.00,ESE,111,4.0,5.0,99,0.00,,,-99.99,,2013-04-02 12:22:00,
2013-04-02 06:32:00,21.0,21.0,-100.00,ESE,117,3.0,4.0,99,0.00,,,-99.99,,2013-04-02 12:32:00,
2013-04-02 06:42:00,21.0,21.0,-100.00,ESE,117,3.0,4.0,99,0.00,,,-99.99,,2013-04-02 12:42:00,
2013-04-02 06:52:00,21.0,21.0,-100.00,ESE,112,3.0,4.0,99,0.00,,,-99.99,,2013-04-02 12:52:00,
2013-04-02 07:02:00,22.0,22.0,-100.00,ESE,115,5.0,7.0,99,0.00,,,-99.99,,2013-04-02 13:02:00,
2013-04-02 07:12:00,22.0,22.0,-100.00,East,96,5.0,7.0,99,0.00,,,-99.99,,2013-04-02 13:12:00,
2013-04-02 07:22:00,22.0,22.0,-100.00,East,96,5.0,7.0,99,0.00,,,-99.99,,2013-04-02 13:22:00,
2013-04-02 07:32:00,23.0,23.0,-100.00,ESE,108,5.0,7.0,99,0.00,,,-99.99,,2013-04-02 13:32:00,
2013-04-02 07:42:00,23.0,23.0,-100.00,ESE,108,5.0,7.0,99,0.00,,,-99.99,,2013-04-02 13:42:00,
2013-04-02 07:52:00,23.0,23.0,-100.00,ESE,114,5.0,7.0,99,0.00,,,-99.99,,2013-04-02 13:52:00,
2013-04-02 08:02:00,25.0,25.0,-100.00,ESE,120,4.0,6.0,99,0.00,,,-99.99,,2013-04-02 14:02:00,
2013-04-02 08:12:00,25.0,25.0,-100.00,ESE,120,4.0,6.0,99,0.00,,,-99.99,,2013-04-02 14:12:00,
2013-04-02 08:23:00,27.0,27.0,-100.00,ESE,120,4.0,6.0,99,0.00,,,-99.99,,2013-04-02 14:23:00,
2013-04-02 08:32:00,27.0,27.0,-100.00,SE,124,4.0,6.0,99,0.00,,,-99.99,,2013-04-02 14:32:00,
2013-04-02 08:42:00,27.0,27.0,-100.00,SE,124,4.0,6.0,99,0.00,,,-99.99,,2013-04-02 14:42:00,
2013-04-02 08:52:00,30.0,29.0,-100.00,East,93,2.0,4.0,98,0.00,,,-99.99,,2013-04-02 14:52:00,
2013-04-02 09:02:00,33.0,31.0,-100.00,NNW,333,4.0,7.0,93,0.00,,,-99.99,,2013-04-02 15:02:00,
2013-04-02 09:11:00,33.0,31.0,-100.00,NNW,333,4.0,7.0,93,0.00,,,-99.99,,2013-04-02 15:11:00,
2013-04-02 09:22:00,33.0,29.0,-100.00,NNW,332,6.0,8.0,84,0.00,,,-99.99,,2013-04-02 15:22:00,
2013-04-02 09:33:00,35.0,30.0,-100.00,NW,322,5.0,8.0,81,0.00,,,-99.99,,2013-04-02 15:33:00,
2013-04-02 09:42:00,35.0,30.0,-100.00,NW,322,5.0,8.0,81,0.00,,,-99.99,,2013-04-02 15:42:00,
2013-04-02 09:54:00,37.0,29.0,-100.00,NNW,332,5.0,8.0,72,0.00,,,-99.99,,2013-04-02 15:54:00,
2013-04-02 10:04:00,38.0,29.0,-100.00,NNW,328,6.0,9.0,70,0.00,,,-99.99,,2013-04-02 16:04:00,
2013-04-02 10:13:00,38.0,29.0,-100.00,NNW,328,6.0,9.0,70,0.00,,,-99.99,,2013-04-02 16:13:00,
2013-04-02 10:24:00,41.0,34.0,-100.00,NW,326,7.0,9.0,75,0.00,,,-99.99,,2013-04-02 16:24:00,
2013-04-02 10:35:00,41.0,32.0,-100.00,NNW,338,7.0,10.0,70,0.00,,,-99.99,,2013-04-02 16:35:00,
2013-04-02 10:43:00,41.0,32.0,-100.00,NNW,338,7.0,10.0,70,0.00,,,-99.99,,2013-04-02 16:43:00,
2013-04-02 10:53:00,41.0,32.0,-100.00,NNW,338,7.0,10.0,70,0.00,,,-99.99,,2013-04-02 16:53:00,
2013-04-02 11:04:00,41.0,31.0,-100.00,NW,315,7.0,10.0,67,0.00,,,-99.99,,2013-04-02 17:04:00,
2013-04-02 11:13:00,41.0,31.0,-100.00,NW,315,7.0,10.0,67,0.00,,,-99.99,,2013-04-02 17:13:00,
2013-04-02 11:24:00,41.0,35.0,-100.00,NW,326,7.0,11.0,80,0.00,,,-99.99,,2013-04-02 17:24:00,
2013-04-02 11:34:00,39.0,31.0,-100.00,NNW,327,6.0,9.0,74,0.00,,,-99.99,,2013-04-02 17:34:00,
2013-04-02 11:43:00,39.0,31.0,-100.00,NNW,327,6.0,9.0,74,0.00,,,-99.99,,2013-04-02 17:43:00,
2013-04-02 11:53:00,38.0,31.0,-100.00,NNW,332,7.0,10.0,75,0.00,,,-99.99,,2013-04-02 17:53:00,
2013-04-02 12:03:00,36.0,30.0,-100.00,NNW,327,6.0,11.0,80,0.00,,,-99.99,,2013-04-02 18:03:00,
2013-04-02 12:12:00,36.0,30.0,-100.00,NNW,327,6.0,11.0,80,0.00,,,-99.99,,2013-04-02 18:12:00,
2013-04-02 12:23:00,35.0,29.0,-100.00,NNW,331,6.0,9.0,80,0.00,,,-99.99,,2013-04-02 18:23:00,
2013-04-02 12:34:00,35.0,29.0,-100.00,NNW,331,6.0,9.0,80,0.00,,,-99.99,,2013-04-02 18:34:00,
2013-04-02 12:43:00,35.0,29.0,-100.00,NNW,331,6.0,9.0,80,0.00,,,-99.99,,2013-04-02 18:43:00,
2013-04-02 12:54:00,34.0,30.0,-100.00,NNW,343,5.0,9.0,84,0.00,,,-99.99,,2013-04-02 18:54:00,
2013-04-02 13:03:00,37.0,32.0,-100.00,NW,312,5.0,9.0,82,0.00,,,-99.99,,2013-04-02 19:03:00,
2013-04-02 13:13:00,37.0,32.0,-100.00,NW,312,5.0,9.0,82,0.00,,,-99.99,,2013-04-02 19:13:00,
2013-04-02 13:22:00,40.0,33.0,-100.00,NW,306,6.0,10.0,76,0.00,,,-99.99,,2013-04-02 19:22:00,
2013-04-02 13:33:00,37.0,31.0,-100.00,NW,321,6.0,11.0,78,0.00,,,-99.99,,2013-04-02 19:33:00,
2013-04-02 13:45:00,37.0,31.0,-100.00,NW,321,6.0,11.0,78,0.00,,,-99.99,,2013-04-02 19:45:00,
2013-04-02 13:53:00,35.0,31.0,-100.00,NW,321,3.0,6.0,84,0.00,,,-99.99,,2013-04-02 19:53:00,
2013-04-02 14:03:00,33.0,29.0,-100.00,South,184,3.0,5.0,85,0.00,,,-99.99,,2013-04-02 20:03:00,
2013-04-02 14:13:00,33.0,29.0,-100.00,South,184,3.0,5.0,85,0.00,,,-99.99,,2013-04-02 20:13:00,
2013-04-02 14:22:00,31.0,30.0,-100.00,South,178,3.0,4.0,96,0.00,,,-99.99,,2013-04-02 20:22:00,
2013-04-02 14:33:00,31.0,30.0,-100.00,West,260,2.0,4.0,96,0.00,,,-99.99,,2013-04-02 20:33:00,
2013-04-02 14:43:00,31.0,30.0,-100.00,West,260,2.0,4.0,96,0.00,,,-99.99,,2013-04-02 20:43:00,
2013-04-02 14:54:00,31.0,30.0,-100.00,West,260,2.0,4.0,96,0.00,,,-99.99,,2013-04-02 20:54:00,
2013-04-02 15:03:00,32.0,31.0,-100.00,West,263,1.0,2.0,97,0.00,,,-99.99,,2013-04-02 21:03:00,
2013-04-02 15:13:00,32.0,31.0,-100.00,West,263,1.0,2.0,97,0.00,,,-99.99,,2013-04-02 21:13:00,
2013-04-02 15:23:00,33.0,32.0,-100.00,NW,316,0.0,2.0,96,0.00,,,-99.99,,2013-04-02 21:23:00,
2013-04-02 15:34:00,33.0,32.0,-100.00,WNW,288,1.0,3.0,96,0.00,,,-99.99,,2013-04-02 21:34:00,
2013-04-02 15:43:00,33.0,32.0,-100.00,WNW,288,1.0,3.0,96,0.00,,,-99.99,,2013-04-02 21:43:00,
2013-04-02 15:55:00,34.0,32.0,-100.00,West,279,0.0,0.0,94,0.00,,,-99.99,,2013-04-02 21:55:00,
2013-04-02 16:04:00,36.0,34.0,-100.00,SE,146,0.0,1.0,91,0.00,,,-99.99,,2013-04-02 22:04:00,
2013-04-02 16:13:00,36.0,34.0,-100.00,SE,146,0.0,1.0,91,0.00,,,-99.99,,2013-04-02 22:13:00,
2013-04-02 16:24:00,34.0,31.0,-100.00,SE,145,2.0,5.0,89,0.00,,,-99.99,,2013-04-02 22:24:00,
2013-04-02 16:33:00,33.0,31.0,-100.00,South,178,0.0,1.0,91,0.00,,,-99.99,,2013-04-02 22:33:00,
2013-04-02 16:43:00,33.0,31.0,-100.00,South,178,0.0,1.0,91,0.00,,,-99.99,,2013-04-02 22:43:00,
2013-04-02 16:53:00,33.0,30.0,-100.00,SSE,168,3.0,6.0,88,0.00,,,-99.99,,2013-04-02 22:53:00,
2013-04-02 17:02:00,33.0,31.0,-100.00,South,180,3.0,5.0,92,0.00,,,-99.99,,2013-04-02 23:02:00,
2013-04-02 17:12:00,32.0,30.0,-100.00,South,173,1.0,4.0,92,0.00,,,-99.99,,2013-04-02 23:12:00,
2013-04-02 17:23:00,32.0,30.0,-100.00,South,173,1.0,4.0,92,0.00,,,-99.99,,2013-04-02 23:23:00,
2013-04-02 17:34:00,32.0,30.0,-100.00,North,-999,0.0,0.0,91,0.00,,,-99.99,,2013-04-02 23:34:00,
2013-04-02 17:42:00,32.0,30.0,-100.00,North,-999,0.0,0.0,91,0.00,,,-99.99,,2013-04-02 23:42:00,
2013-04-02 17:54:00,32.0,30.0,-100.00,West,267,2.0,4.0,92,0.00,,,-99.99,,2013-04-02 23:54:00,
2013-04-02 18:03:00,32.0,30.0,-100.00,NNW,340,3.0,5.0,92,0.00,,,-99.99,,2013-04-03 00:03:00,
2013-04-02 18:13:00,32.0,30.0,-100.00,NNW,340,3.0,5.0,92,0.00,,,-99.99,,2013-04-03 00:13:00,
2013-04-02 18:24:00,31.0,29.0,-100.00,North,-999,0.0,0.0,93,0.00,,,-99.99,,2013-04-03 00:24:00,
2013-04-02 18:33:00,31.0,29.0,-100.00,North,-999,1.0,2.0,93,0.00,,,-99.99,,2013-04-03 00:33:00,
2013-04-02 18:45:00,31.0,29.0,-100.00,North,-999,1.0,2.0,93,0.00,,,-99.99,,2013-04-03 00:45:00,
2013-04-02 18:55:00,31.0,29.0,-100.00,SW,233,0.0,2.0,94,0.00,,,-99.99,,2013-04-03 00:55:00,
2013-04-02 19:03:00,31.0,29.0,-100.00,West,273,0.0,0.0,93,0.00,,,-99.99,,2013-04-03 01:03:00,
2013-04-02 19:12:00,31.0,29.0,-100.00,West,273,0.0,0.0,93,0.00,,,-99.99,,2013-04-03 01:12:00,
2013-04-02 19:22:00,30.0,28.0,-100.00,SSW,207,0.0,2.0,94,0.00,,,-99.99,,2013-04-03 01:22:00,
2013-04-02 19:33:00,30.0,29.0,-100.00,NW,323,0.0,2.0,95,0.00,,,-99.99,,2013-04-03 01:33:00,
2013-04-02 19:42:00,30.0,29.0,-100.00,NW,323,0.0,2.0,95,0.00,,,-99.99,,2013-04-03 01:42:00,
2013-04-02 19:53:00,29.0,29.0,-100.00,NNW,336,3.0,4.0,98,0.00,,,-99.99,,2013-04-03 01:53:00,
2013-04-02 20:03:00,29.0,29.0,-100.00,NNW,336,3.0,4.0,99,0.00,,,-99.99,,2013-04-03 02:03:00,
2013-04-02 20:13:00,29.0,29.0,-100.00,NNW,336,3.0,4.0,99,0.00,,,-99.99,,2013-04-03 02:13:00,
2013-04-02 20:23:00,29.0,29.0,-100.00,NNW,333,2.0,3.0,99,0.00,,,-99.99,,2013-04-03 02:23:00,
2013-04-02 20:33:00,29.0,29.0,-100.00,NNW,337,2.0,3.0,99,0.00,,,-99.99,,2013-04-03 02:33:00,
2013-04-02 20:43:00,29.0,29.0,-100.00,NNW,337,2.0,3.0,99,0.00,,,-99.99,,2013-04-03 02:43:00,
2013-04-02 20:53:00,29.0,29.0,-100.00,NNW,329,1.0,3.0,99,0.00,,,-99.99,,2013-04-03 02:53:00,
2013-04-02 21:04:00,28.0,28.0,-100.00,NW,319,1.0,3.0,99,0.00,,,-99.99,,2013-04-03 03:04:00,
2013-04-02 21:13:00,28.0,28.0,-100.00,NW,319,1.0,3.0,99,0.00,,,-99.99,,2013-04-03 03:13:00,
2013-04-02 21:23:00,29.0,29.0,-100.00,NNW,329,0.0,0.0,99,0.00,,,-99.99,,2013-04-03 03:23:00,
2013-04-02 21:36:00,29.0,29.0,-100.00,WNW,302,0.0,0.0,99,0.00,,,-99.99,,2013-04-03 03:36:00,
2013-04-02 21:43:00,29.0,29.0,-100.00,WNW,302,0.0,0.0,99,0.00,,,-99.99,,2013-04-03 03:43:00,
2013-04-02 21:54:00,28.0,28.0,-100.00,NW,315,0.0,0.0,99,0.00,,,-99.99,,2013-04-03 03:54:00,
2013-04-02 22:03:00,27.0,27.0,-100.00,NNW,332,0.0,0.0,99,0.00,,,-99.99,,2013-04-03 04:03:00,
2013-04-02 22:12:00,27.0,27.0,-100.00,NNW,332,0.0,0.0,99,0.00,,,-99.99,,2013-04-03 04:12:00,
2013-04-02 22:23:00,27.0,27.0,-100.00,NNW,332,0.0,0.0,99,0.00,,,-99.99,,2013-04-03 04:23:00,
2013-04-02 22:33:00,27.0,27.0,-100.00,North,0,0.0,0.0,99,0.00,,,-99.99,,2013-04-03 04:33:00,
2013-04-02 22:42:00,27.0,27.0,-100.00,North,0,0.0,0.0,99,0.00,,,-99.99,,2013-04-03 04:42:00,
2013-04-02 22:53:00,27.0,27.0,-100.00,ESE,112,1.0,3.0,99,0.00,,,-99.99,,2013-04-03 04:53:00,
2013-04-02 23:02:00,27.0,27.0,-100.00,ESE,114,1.0,3.0,99,0.00,,,-99.99,,2013-04-03 05:02:00,
2013-04-02 23:12:00,27.0,27.0,-100.00,ESE,114,1.0,3.0,99,0.00,,,-99.99,,2013-04-03 05:12:00,
2013-04-02 23:22:00,27.0,27.0,-100.00,ESE,113,2.0,4.0,99,0.00,,,-99.99,,2013-04-03 05:22:00,
2013-04-02 23:32:00,27.0,27.0,-100.00,ESE,112,2.0,3.0,99,0.00,,,-99.99,,2013-04-03 05:32:00,
2013-04-02 23:42:00,27.0,27.0,-100.00,ESE,112,2.0,3.0,99,0.00,,,-99.99,,2013-04-03 05:42:00,
2013-04-02 23:52:00,26.0,26.0,-100.00,ESE,112,2.0,3.0,99,0.00,,,-99.99,,2013-04-03 05:52:00,